Hourly Data Report for October 02, 2017

All times are specified in Local Standard Time (LST). Add 1 hour to adjust for Daylight Saving Time where and when it is observed.

GRETNA (AUT)
MANITOBA

49°01'51.004" N
97°33'36.003" W
252.60 m
5021220
71441
WGN

Download Data

Hourly Data (October 2017)
Hourly Data Report for October 2, 2017
Temp Definition
°C
Dew Point Temp Definition
°C
Rel Hum Definition
%
Wind Dir Definition
10's deg

Wind Spd Definition
km/h
Visibility Definition
km
Stn Press Definition
kPa
Hmdx Definition


Wind Chill Definition


Weather Definition


TIME
00:00 14.3 12.8 91 16 18   97.19     LegendNANA
01:00 14.3 12.6 89 16 22   97.20     LegendNANA
02:00 14.3 12.5 89 16 16   97.19     LegendNANA
03:00 14.6 12.7 89 17 16   97.17     LegendNANA
04:00 14.5 12.7 89 19 15   97.19     LegendNANA
05:00 13.3 10.3 82 22 19   97.27     LegendNANA
06:00 12.8 10.0 83 21 17   97.34     LegendNANA
07:00 12.2 9.2 82 22 19   97.41     LegendNANA
08:00 12.5 8.8 78 23 14   97.47     LegendNANA
09:00 12.7 8.3 75 24 16   97.57     LegendNANA
10:00 13.3 7.5 68 24 25   97.62     LegendNANA
11:00 13.3 6.9 65 24 27   97.67     LegendNANA
12:00 14.0 6.8 62 23 25   97.74     LegendNANA
13:00 14.6 6.5 58 23 24   97.76     LegendNANA
14:00 16.7 6.6 51 24 25   97.82     LegendNANA
15:00 16.4 6.1 51 22 22   97.83     LegendNANA
16:00 15.4 5.4 51 23 18   97.92     LegendNANA
17:00 14.3 5.1 54 24 14   97.96     LegendNANA
18:00 13.4 5.6 59 21 11   98.05     LegendNANA
19:00 10.5 5.0 69 19 9   98.13     LegendNANA
20:00 9.8 4.9 72 18 10   98.20     LegendNANA
21:00 10.4 4.9 69 19 11   98.26     LegendNANA
22:00 9.5 4.6 72 20 9   98.24     LegendNANA
23:00 6.3 2.7 78 18 9   98.26     LegendNANA

Notes on Data Quality.

Legend

  • E = Estimated
  • M = Missing
  • NA = Not Available
  • ‡ = Partner data that is not subject to review by the National Climate Archives
Date modified: